Location: Mapua
(41.2500°S, 173.1000°E)
Time: 00:09:01
(UTC+12:00)

ISS - Pass Details

Date: 28 March 2019
Orbit: 408 x 410 km, 51.6° (Epoch: 24 April)

Event Time Altitude Azimuth Distance (km) Brightness Sun altitude
Exits shadow 05:43:48 12° 25° (NNE) 1,366 -1.1 -22.0°
Maximum altitude 05:45:05 14° 50° (NE) 1,254 -1.0 -21.8°
Drops below altitude 10° 05:47:00 10° 84° (E) 1,499 0.0 -21.5°
Sets 05:49:48 0° 109° (ESE) 2,372 1.6 -21.0°
